Regional Weather Roundup
Issued by NWS

Home | Current Version | Previous Version | Text Only | Print | Product List | Glossary On
Versions: 1 2 3 4 5 6 7 8 9 10 11 12 13 14 15 16 17 18 19 20 21 22 23 24 25 26 27 28 29 30 31 32 33 34 35 36 37 38 39 40 41 42 43 44 45 46 47 48 49 50
000
ASUS44 KFWD 210115
RWRTX
NORTH TEXAS HOURLY WEATHER ROUNDUP
NATIONAL WEATHER SERVICE FORT WORTH TX
700 PM CST MON FEB 20 2017

NOTE: "FAIR" INDICATES FEW OR NO CLOUDS BELOW 12,000 FEET WITH NO
SIGNIFICANT WEATHER AND/OR OBSTRUCTIONS TO VISIBILITY.

TXZ118-119-210200-
DALLAS/FORT WORTH METROPLEX

CITY           SKY/WX    TMP DP  RH WIND       PRES   REMARKS
DFW AIRPORT    PTCLDY    61  54  77 S6        29.91S
DALLAS LOVE    PTCLDY    63  55  75 S7        29.92S
FTW MEACHAM    CLEAR     63  53  70 SE7       29.91S
DAL-EXECUTIVE  CLEAR     62  57  83 S5        29.92S
FTW-ALLIANCE   PTCLDY    61  53  75 SE5       29.91S
FTW-NAS-JRB    CLEAR     65  54  67 SE8       29.92S
FTW-SPINKS     CLEAR     61  54  77 SE5       29.94R
ARLINGTON      CLEAR     61  54  77 S5        29.92S
GRAND PRAIRIE  CLEAR     63  53  70 S3        29.93F
ADDISON        PTCLDY    61  54  77 SE7       29.93F
MESQUITE       PTCLDY    61  55  82 CALM      29.94R
LANCASTER      CLEAR     58  55  88 CALM      29.94S
$$

TXZ091>094-102>105-117-120-121-131>134-210200-
NORTH CENTRAL TEXAS

CITY           SKY/WX    TMP DP  RH WIND       PRES   REMARKS
SHRMAN/DENISON CLEAR     57  54  90 S5        29.95R
GAINESVILLE    CLEAR     58  52  80 SE6       29.95S
BOWIE          CLEAR     61  51  70 CALM      29.92R HAZE
BRIDGEPORT     CLEAR     62  48  60 SE5       29.93R
DECATUR        CLEAR     63  50  61 SE3       29.92S
DENTON         CLEAR     60  54  80 SE6       29.92R
MCKINNEY       CLEAR     57  56  96 SE5       29.93R
BONHAM         CLOUDY    57  55  94 S6        29.94R
ROCKWALL       CLEAR     60  57  89 S3        29.94R
TERRELL        PTCLDY    60  56  86 SE6       29.93F
WAXAHACHIE     CLEAR     59  56  90 S5        29.94F
CLEBURNE       CLEAR     61  57  88 SE8       29.94R
GRANBURY       CLEAR     65  53  65 E8        29.92R
$$

TXZ083>090-098>101-113>116-127>130-139>142-154-155-210200-
WESTERN NORTH TEXAS

CITY           SKY/WX    TMP DP  RH WIND       PRES   REMARKS
WICHITA FALLS  CLEAR     64  42  44 W5        29.91R
WF-KICKAPOO    CLEAR     66  42  42 NW3       29.92R
VERNON         CLEAR     67  38  34 W3        29.93R
ABILENE        CLEAR     62  36  37 N6        29.94R
ABILENE-DYESS  CLEAR     59  40  48 NE9       29.93R
CISCO          CLEAR     64  37  36 NW5       29.92R
RANGER         CLEAR     57  41  54 W3        29.92R
MINERAL WELLS  PTCLDY    63  48  58 E8        29.89R
STEPHENVILLE   CLEAR     65  40  38 CALM      29.94R
COMANCHE       CLEAR     65  40  39 W5        29.92R
BROWNWOOD      MOCLDY    63  39  42 CALM      29.92R
COLEMAN        PTCLDY    65  38  36 NW7       29.93R
$$

TXZ143>147-156>162-174-175-210200-
CENTRAL TEXAS

CITY           SKY/WX    TMP DP  RH WIND       PRES   REMARKS
WACO           CLEAR     59  55  87 SE6       29.92F
WACO-TSTC      CLEAR     59  55  88 S5        29.93S
WACO-MCGREGOR  CLEAR     60  57  89 S7        29.93S
HILLSBORO      CLEAR     59  56  89 SE3       29.93S
CORSICANA      PTCLDY    60  58  92 SE6       29.94F
MEXIA          PTCLDY    59  57  93 S8        29.93R
HEARNE         PTCLDY    60  57  91 S3        29.96R
CAMERON        CLEAR     61  57  88 S3        29.94S
KILLEEN        CLEAR     62  54  75 S6        29.91S
KILLEEN-SKYLRK CLEAR     62  56  80 SE6       29.93S
FORT HOOD      CLEAR     60  54  80 SE6       29.90S
GATESVILLE     CLEAR     61  54  77 SE5       29.94S
HAMILTON       CLEAR     64  43  46 SW3       29.92S
LAMPASAS       PTCLDY    61  51  69 CALM      29.92S
$$

TXZ095>097-106>112-122>126-135>138-148>153-164>167-210200-
EAST TEXAS

CITY           SKY/WX    TMP DP  RH WIND       PRES   REMARKS
PARIS          CLOUDY    57  54  88 CALM      29.95R
SULPHUR SPRNGS CLOUDY    59  58  95 S3        29.97S
MOUNT PLEASANT CLOUDY    59  59 100 E3        29.96F
GILMER         DRIZZLE   58  58  98 CALM      29.95S
MINEOLA        MOCLDY    57  57 100 CALM      29.92F
TYLER          CLOUDY    59  59 100 CALM      29.93F
LONGVIEW       LGT RAIN  59  59 100 W8        29.94R
MARSHALL       CLOUDY    57  55  93 MISG      29.94F
ATHENS         CLOUDY    55  55 100 CALM      29.94F
JACKSONVILLE   CLOUDY    58  58 100 CALM      29.98F
HENDERSON      LGT RAIN N/A N/A N/A SW3       29.97S
CENTER         LGT RAIN  62  61  96 NE6       29.94F
NACOGDOCHES    MOCLDY    57  55  94 N9        29.90F
LUFKIN         LGT RAIN  57  57 100 NW7       29.91F
$$

SUPPLEMENTAL OBSERVATIONS (CENTRAL)

CITY           SKY/WX    TMP DP  RH WIND       PRES   REMARKS
DENISON DAM      N/A     61  55  82 S3          N/A
CADDO GRASSLND   N/A     57  54  88 E1          N/A
PAT MAYSE LAKE   N/A     57  55  94 E1          N/A
GREENVILLE       N/A     59  55  88 S1          N/A
CEDAR HILL       N/A     59  54  82 SE3         N/A
ATHENS           N/A     57  54  88 CALM        N/A
LAKE LIMESTONE   N/A     59  55  88 SE2         N/A
MCGREGOR         N/A     61  57  88 SE3         N/A
TEMPLE           N/A     61  57  88 S5          N/A
$$

SUPPLEMENTAL OBSERVATIONS (WEST)

CITY           SKY/WX    TMP DP  RH WIND       PRES   REMARKS
MILLERS CREEK    N/A     64  41  42 NW3         N/A
POSSUM KINGDOM   N/A     64  39  39 NW5         N/A
LBJ GRASSLAND    N/A     63  48  59 E5          N/A
GRANBURY         N/A     64  52  63 SE8         N/A
COMANCHE         N/A     64  37  36 W7          N/A
HAMBY            N/A     63  37  39 N5          N/A
IVIE RESERVOIR   N/A     64  37  36 W7          N/A
COLORADO BEND    N/A     63  46  55 W2          N/A
$$

SUPPLEMENTAL OBSERVATIONS (EAST)

CITY           SKY/WX    TMP DP  RH WIND       PRES   REMARKS
CLARKSVILLE      N/A     57  55  94 NE1         N/A
TEXARKANA        N/A     61  59  94 E2          N/A
LINDEN           N/A     59  57  94 NE1         N/A
CADDO LAKE       N/A    N/A N/A N/A CALM        N/A
GILMER           N/A     59  57  94 E2          N/A
HENDERSON        N/A     57  55  94 SW3         N/A
LUFKIN           N/A     59  55  88 MISG        N/A
N SABINE NF      N/A     59  57  94 MISG        N/A
S SABINE NF      N/A     57  55  94 N1          N/A
$$

SUPPLEMENTAL OBSERVATIONS ARE A COLLECTION OF AUTOMATED INSTRUMENTS
THAT ARE MAINTAINED BY A VARIETY OF FEDERAL AND STATE AGENCIES.
CERTAIN ELEMENTS...SUCH AS HUMIDITY VALUES AND SUSTAINED WIND
SPEEDS...MAY BE APPROXIMATED.




USA.gov is the U.S. government's official web portal to all federal, state and local government web resources and services.